Temperature
8 8 8 7 7 7 7 7 6 6 6 6 6 6 6 5 5 5 5 5 5 5 5 4 4 4 4 4 3 3 3 2 2 2 2 2 2 2 2 2 2 1 1
8 7 7 7 7 7 6 6 6 6 6 6 5 5 5 5 5 5 5 5 4 4 4 4 4 4 3 3 3 3 2 2 2 2 2 2 2 2 1 1 1 1 1
7 7 7 7 7 6 6 6 6 6 5 5 5 5 5 5 4 4 4 4 4 4 4 3 3 3 3 3 2 2 2 2 1 1 1 1 1 1 1 1 1 1 0
7 7 7 7 6 6 6 6 5 5 5 5 5 4 4 4 4 4 4 3 3 3 3 3 3 3 2 2 2 2 1 1 1 0 0 0 0 0 -0 -0 0 0 -0
7 7 7 6 6 6 5 5 5 5 5 4 4 4 4 4 3 3 3 3 3 3 3 3 2 2 2 2 1 1 1 0 0 -0 -0 -0 -0 -1 -1 -1 -1 -1 -1
7 6 6 6 5 5 5 5 5 5 4 4 4 4 3 3 3 3 2 2 2 2 2 2 2 2 1 1 1 0 0 -0 -1 -1 -1 -1 -1 -1 -2 -2 -2 -2 -2
6 6 5 5 5 5 5 4 4 4 4 4 3 3 3 3 2 2 2 2 2 2 2 1 1 1 1 1 0 0 -0 -1 -1 -2 -2 -2 -2 -2 -2 -2 -3 -3 -3
6 5 5 5 5 4 4 4 4 4 3 3 3 3 2 2 2 2 2 1 1 1 1 1 1 1 0 -0 -1 -1 -1 -1 -1 -2 -2 -2 -2 -2 -3 -3 -3 -4 -4
5 5 5 4 4 4 4 4 4 3 3 3 3 2 2 2 2 1 1 1 1 1 1 1 0 -0 -0 -1 -1 -1 -1 -1 -2 -2 -2 -2 -3 -3 -3 -4 -4 -4 -4
5 5 4 4 4 3 3 3 3 3 3 2 2 2 2 2 1 1 1 0 0 0 0 0 -0 -1 -1 -2 -2 -2 -2 -2 -2 -3 -3 -3 -3 -3 -3 -4 -4 -5 -5
4 4 4 4 3 3 3 3 3 2 2 2 2 2 1 1 1 1 0 -0 -0 -1 -1 -1 -1 -1 -2 -2 -2 -3 -3 -3 -3 -3 -3 -3 -3 -4 -4 -4 -5 -5 -5
4 4 3 3 3 3 2 2 2 2 2 1 1 1 1 1 1 0 -0 -1 -1 -1 -1 -2 -2 -2 -2 -2 -3 -3 -3 -4 -4 -4 -4 -4 -4 -4 -4 -5 -5 -5 -6
3 3 3 3 2 2 2 2 2 1 1 1 1 1 1 1 0 -0 -1 -1 -1 -2 -2 -2 -2 -3 -3 -3 -3 -3 -4 -4 -4 -4 -4 -4 -5 -5 -5 -5 -5 -5 -6
3 3 2 2 2 2 1 1 1 1 1 1 0 0 0 -0 -0 -1 -1 -2 -2 -2 -2 -3 -3 -3 -3 -3 -4 -4 -4 -5 -5 -5 -5 -5 -5 -5 -5 -6 -6 -6 -6
2 2 2 2 1 1 1 1 1 0 0 -0 -0 -0 -1 -1 -1 -2 -2 -2 -2 -3 -3 -3 -3 -4 -4 -4 -4 -4 -5 -5 -5 -5 -6 -5 -5 -6 -6 -6 -6 -6 -7
2 1 1 1 1 1 1 1 0 0 -0 -1 -1 -1 -1 -2 -2 -2 -3 -3 -3 -3 -4 -4 -4 -4 -5 -5 -5 -5 -5 -5 -5 -6 -6 -6 -6 -6 -6 -6 -7 -7 -7
1 1 1 1 0 0 0 -0 -0 -0 -1 -1 -1 -1 -2 -2 -2 -3 -3 -3 -4 -4 -4 -4 -4 -5 -5 -6 -6 -6 -6 -6 -6 -6 -6 -6 -6 -6 -7 -7 -7 -7 -7
0 0 0 0 -0 -0 -0 -1 -1 -1 -1 -1 -1 -2 -2 -2 -3 -3 -4 -4 -4 -4 -5 -5 -5 -5 -6 -6 -6 -6 -6 -6 -6 -6 -6 -7 -7 -7 -7 -7 -7 -7 -7
0 -0 -0 -0 -1 -1 -1 -1 -2 -2 -2 -2 -2 -2 -2 -3 -3 -4 -4 -4 -5 -5 -5 -5 -5 -6 -6 -6 -6 -6 -7 -7 -7 -7 -7 -7 -7 -7 -7 -7 -8 -8 -8
-0 -1 -1 -1 -1 -1 -2 -2 -2 -2 -2 -3 -3 -3 -3 -4 -4 -4 -4 -5 -5 -5 -5 -6 -6 -6 -6 -6 -7 -7 -7 -7 -7 -7 -7 -7 -7 -7 -7 -8 -8 -8 -8
-1 -1 -1 -1 -2 -2 -2 -3 -3 -3 -3 -3 -3 -4 -4 -5 -5 -5 -5 -5 -5 -6 -6 -6 -6 -6 -6 -7 -7 -7 -7 -7 -7 -7 -7 -7 -7 -8 -8 -8 -8 -8 -8
-2 -2 -2 -2 -2 -3 -3 -3 -3 -3 -4 -4 -4 -4 -5 -5 -5 -5 -5 -6 -6 -6 -6 -6 -7 -7 -7 -7 -7 -7 -7 -7 -7 -8 -8 -8 -8 -8 -8 -8 -8 -8 -9
-2 -2 -2 -3 -3 -3 -3 -3 -4 -4 -4 -5 -5 -5 -5 -5 -6 -6 -6 -6 -6 -6 -7 -7 -7 -7 -7 -7 -7 -7 -8 -8 -8 -8 -8 -8 -8 -8 -8 -8 -9 -9 -9
-3 -3 -3 -3 -3 -3 -4 -4 -4 -5 -5 -5 -5 -6 -6 -6 -6 -6 -6 -6 -6 -7 -7 -7 -7 -7 -7 -7 -7 -8 -8 -8 -8 -8 -8 -8 -8 -8 -9 -9 -9 -9 -9
-3 -3 -4 -4 -4 -4 -5 -5 -5 -5 -5 -6 -6 -6 -6 -6 -6 -6 -7 -7 -7 -7 -7 -7 -7 -7 -7 -7 -8 -8 -8 -8 -8 -8 -8 -8 -8 -9 -9 -9 -9 -9 -9
-4 -4 -4 -4 -5 -5 -5 -5 -6 -6 -6 -6 -6 -6 -7 -7 -7 -7 -7 -7 -7 -7 -7 -7 -7 -8 -8 -8 -8 -8 -8 -8 -8 -8 -8 -9 -9 -9 -9 -9 -9 -9 -10
Wind_Speed
5 5 5 4 4 3 3 3 3 2 2 2 2 2 2 2 2 2 3 3 3 3 3 3 4 3 3 3 3 3 4 4 7 6 4 4 4 6 8 9 10 10 11
5 5 5 4 4 4 3 3 3 3 3 3 2 2 3 3 3 3 4 4 4 4 4 4 4 3 4 3 3 4 4 5 6 9 6 4 5 5 6 6 7 9 10
5 5 4 4 4 4 3 3 3 3 2 2 2 3 3 3 3 4 4 4 5 5 5 5 5 5 5 4 5 5 5 5 5 6 8 5 4 4 5 5 6 6 9
5 5 5 5 4 4 3 3 3 3 3 3 3 3 3 3 4 4 4 4 5 5 5 6 6 6 7 6 5 6 5 5 5 6 7 6 5 5 4 5 6 4 6
5 5 5 4 4 3 3 3 3 3 4 4 3 3 3 3 4 4 4 5 5 5 5 6 6 8 9 8 6 6 5 5 5 6 7 7 6 5 5 4 6 6 6
6 5 4 4 4 4 3 3 3 3 3 3 3 3 3 4 6 7 5 5 5 6 6 6 6 8 10 12 13 12 10 8 7 7 7 8 9 7 6 5 6 6 6
5 5 4 4 4 4 3 3 3 3 3 3 4 4 5 6 8 8 9 5 5 6 6 6 6 7 9 6 10 13 13 15 14 10 10 10 9 7 6 7 7 7 8
5 5 4 4 4 3 3 3 4 3 3 4 4 5 5 6 8 9 10 5 5 6 6 7 7 7 7 8 7 7 8 9 11 9 9 10 9 8 8 8 9 8 7
5 5 5 5 4 4 4 4 4 3 3 4 4 4 5 7 9 10 9 4 4 6 6 6 7 7 12 14 9 8 9 9 12 15 16 15 17 16 12 6 5 6 8
6 6 5 5 5 5 5 4 3 3 4 4 4 5 5 6 9 10 9 3 4 5 5 6 10 11 13 14 8 7 10 10 8 9 10 12 11 12 14 8 6 7 7
5 5 4 5 5 5 4 3 3 3 3 3 5 5 5 7 9 10 10 4 5 5 6 5 6 13 15 15 13 9 12 12 8 8 7 7 6 6 6 7 7 6 7
4 4 4 4 4 3 3 3 3 3 3 4 4 5 5 5 7 9 11 10 9 6 6 6 7 14 15 16 13 13 16 14 6 6 7 7 6 6 6 6 7 8 8
4 5 4 4 4 4 4 4 3 3 3 4 4 5 5 4 5 10 11 11 12 7 6 10 13 15 14 11 13 15 13 7 6 7 8 7 6 6 5 4 5 6 6
5 5 4 4 4 3 3 4 4 4 4 4 5 5 5 5 4 4 5 6 8 7 6 9 13 13 11 11 11 9 6 6 7 7 7 7 5 4 5 4 4 4 4
5 5 4 4 4 4 4 4 5 6 6 6 5 5 5 6 7 9 7 5 5 6 6 5 4 5 5 5 5 6 5 6 7 6 6 6 6 6 5 4 4 4 5
5 5 4 4 4 3 3 4 6 7 9 10 9 8 7 10 12 12 12 12 12 11 8 5 6 6 7 7 7 6 6 6 6 6 6 6 6 6 5 4 4 4 5
6 5 4 4 4 4 3 3 4 5 6 8 9 10 10 11 11 11 11 11 11 10 6 5 6 6 7 6 6 7 7 6 5 6 6 6 5 5 5 5 4 4 4
5 5 5 4 4 4 4 4 4 4 5 5 6 9 10 11 11 11 10 9 6 6 4 6 6 7 6 6 6 6 6 6 5 5 5 5 5 5 5 5 4 5 4
4 4 4 4 4 4 3 3 4 5 5 6 5 6 8 9 10 10 8 4 5 6 6 6 6 6 6 6 6 6 6 5 5 5 5 5 4 4 5 5 5 6 5
4 5 4 3 3 3 3 4 4 5 5 5 6 6 5 5 4 5 4 4 5 6 6 6 6 6 6 6 5 5 5 5 5 5 5 4 4 4 5 5 5 4 4
3 3 4 3 3 4 4 5 5 5 5 6 6 7 9 6 6 6 5 5 6 6 6 6 6 6 6 5 5 5 5 5 5 5 4 4 4 4 4 4 5 4 4
3 3 3 3 3 4 4 4 5 5 6 7 7 7 11 6 5 6 6 6 6 6 6 6 6 6 5 5 5 5 5 5 5 5 4 4 4 4 4 4 4 4 4
2 3 3 3 3 5 5 4 5 6 6 6 6 6 6 5 6 6 6 6 6 6 5 5 6 6 5 5 5 5 6 6 5 5 4 4 4 4 4 4 4 4 4
3 3 3 3 4 4 5 5 5 6 6 6 6 6 6 6 6 7 6 6 6 6 5 5 5 7 7 6 5 5 5 5 5 5 5 5 5 4 4 4 4 5 5
3 3 3 4 4 4 5 5 5 6 6 6 6 6 6 6 6 6 6 6 6 6 6 6 5 5 6 7 6 6 7 8 8 5 5 4 5 5 5 5 5 4 4
3 3 4 4 4 4 5 5 6 6 6 6 6 6 6 6 6 6 6 5 5 5 5 5 5 6 7 6 7 8 9 9 9 8 5 4 5 5 5 4 5 5 5
Wind_Direction
164 162 158 165 165 164 176 190 192 194 193 196 201 203 213 220 209 204 224 228 233 248 246 238 248 247 247 249 239 235 235 228 259 276 258 261 264 271 285 282 280 280 283
165 160 165 166 163 171 189 198 193 198 205 204 202 208 220 226 220 215 228 232 232 242 249 247 254 255 250 249 241 243 244 234 244 273 281 271 260 261 266 273 281 279 277
163 162 166 172 175 186 197 199 196 200 209 213 207 217 229 233 232 231 230 236 237 240 241 243 251 250 258 257 249 250 252 255 242 259 277 274 268 267 272 274 272 274 278
168 169 180 190 192 197 200 199 204 204 208 218 223 227 232 236 238 241 239 242 244 246 244 243 245 242 248 253 257 252 253 255 252 258 272 277 272 266 261 272 282 270 273
171 180 195 196 192 194 199 207 212 212 216 218 222 234 238 238 239 242 241 242 245 252 253 249 248 252 257 260 262 254 248 254 259 264 271 278 276 270 265 261 274 283 273
179 192 193 187 190 199 207 209 211 216 218 215 224 234 246 253 270 269 267 249 248 248 257 260 260 264 269 275 276 272 262 257 257 261 266 266 271 265 265 262 269 282 284
185 193 190 189 198 207 207 204 213 219 215 225 235 238 247 259 274 276 273 265 248 248 251 258 270 270 277 267 275 279 276 273 269 263 261 262 265 260 259 265 260 260 264
192 199 198 195 205 207 204 216 221 217 219 228 236 240 247 262 276 280 279 266 251 251 250 250 257 266 267 271 266 269 268 269 270 269 258 259 257 253 246 255 261 265 264
202 207 206 199 205 207 217 228 222 217 230 233 239 240 247 267 279 282 282 259 255 259 256 252 256 261 275 281 278 273 278 277 278 274 271 270 269 270 267 264 259 267 276
212 211 205 199 204 214 223 227 219 217 232 240 251 247 247 259 276 282 281 254 258 268 269 262 269 273 278 282 274 266 275 280 276 278 277 276 272 270 269 255 244 256 270
210 205 203 203 209 217 221 223 224 226 237 250 261 264 256 259 274 280 280 263 252 265 271 270 267 280 284 286 285 273 274 282 278 271 269 267 265 261 257 247 236 237 252
201 204 210 212 214 212 212 228 228 222 238 256 266 278 269 264 271 279 282 278 275 265 268 269 273 284 287 288 288 283 286 290 281 275 272 270 266 262 255 249 243 239 241
201 213 220 219 217 209 208 222 233 227 233 250 256 270 279 272 272 281 283 283 281 278 270 276 283 287 290 289 285 288 291 287 277 273 271 268 259 254 253 254 251 250 254
208 219 219 217 225 223 216 214 219 229 236 245 251 261 273 277 270 268 267 278 282 280 279 281 287 288 288 286 287 288 279 271 272 270 271 270 263 254 252 249 257 259 267
214 220 220 221 225 231 230 225 225 227 224 232 241 244 257 273 272 277 281 274 270 271 288 284 282 287 282 281 279 273 271 272 274 264 264 268 267 262 258 249 252 257 257
215 221 222 223 226 228 240 267 253 245 257 257 257 257 259 266 282 285 284 285 287 286 291 281 281 281 281 284 284 283 276 270 266 263 263 261 263 260 260 253 249 254 259
215 222 222 223 225 228 230 242 275 288 278 273 269 271 272 280 286 288 288 290 289 290 282 273 275 278 280 280 280 279 280 274 266 262 262 259 258 257 255 254 249 250 256
219 226 225 226 227 229 231 236 242 262 285 288 282 281 284 287 290 293 293 296 289 283 265 270 274 276 276 276 276 277 279 279 271 265 259 255 252 254 253 252 249 247 252
219 225 225 225 225 228 232 238 244 250 262 275 288 291 288 290 292 291 293 274 270 273 271 270 271 272 271 271 273 273 272 275 273 267 261 254 251 249 251 249 248 251 257
228 236 233 226 227 231 235 242 249 254 260 267 273 279 288 288 284 284 272 261 265 270 269 270 272 271 269 268 270 272 272 271 271 267 262 257 251 247 248 247 246 248 248
229 238 241 237 233 237 242 246 251 255 261 267 270 275 282 281 275 273 271 264 262 266 268 268 269 270 267 266 265 265 265 268 266 264 261 257 252 252 249 246 244 242 243
224 232 232 233 241 246 251 248 253 258 263 268 275 280 284 279 268 269 269 269 264 262 264 265 266 265 261 259 260 261 262 262 261 260 257 254 252 250 248 244 240 240 241
225 236 246 247 247 262 268 258 258 261 265 268 272 276 278 272 270 270 271 271 269 269 266 262 264 267 263 255 252 252 255 257 254 250 253 255 253 247 242 241 240 243 245
231 237 246 254 254 252 256 260 261 265 269 272 274 274 276 274 273 274 273 272 271 270 267 261 258 260 261 262 261 257 253 253 251 248 244 244 243 242 238 237 239 241 245
242 249 256 259 262 263 264 267 270 271 273 275 274 275 275 275 275 276 274 273 272 272 269 265 262 261 261 260 259 258 259 264 265 252 241 241 239 235 233 234 237 241 243
252 254 258 261 263 266 269 272 273 273 273 274 273 272 273 274 276 275 275 273 273 272 272 269 261 259 261 261 259 261 266 270 270 265 250 244 235 235 232 234 233 237 241
Height
1494 1496 1497 1498 1500 1501 1501 1502 1502 1503 1503 1503 1503 1503 1503 1502 1502 1502 1502 1501 1501 1501 1501 1500 1500 1499 1499 1498 1497 1496 1495 1493 1489 1485 1486 1485 1484 1482 1481 1479 1477 1475 1473
1492 1493 1494 1496 1497 1497 1498 1498 1499 1499 1499 1499 1499 1499 1499 1499 1498 1498 1498 1497 1497 1497 1497 1496 1495 1495 1494 1493 1492 1491 1489 1488 1485 1481 1479 1479 1478 1477 1475 1473 1471 1469 1467
1489 1491 1492 1493 1493 1494 1494 1495 1495 1495 1495 1495 1495 1495 1495 1495 1495 1494 1493 1493 1493 1492 1492 1491 1490 1489 1488 1488 1486 1485 1484 1482 1480 1477 1473 1473 1471 1470 1468 1466 1465 1463 1461
1487 1488 1489 1489 1490 1490 1491 1491 1491 1491 1491 1491 1491 1491 1491 1491 1490 1490 1489 1489 1488 1488 1487 1486 1485 1484 1483 1482 1480 1479 1478 1476 1474 1471 1468 1466 1465 1464 1462 1460 1457 1456 1454
1484 1484 1485 1486 1487 1487 1487 1487 1487 1487 1487 1487 1487 1487 1487 1486 1486 1485 1484 1484 1483 1482 1482 1481 1480 1479 1478 1476 1475 1473 1472 1470 1468 1465 1463 1461 1459 1458 1456 1454 1451 1449 1447
1480 1481 1482 1482 1483 1483 1483 1483 1483 1483 1483 1483 1482 1482 1482 1482 1481 1481 1480 1479 1478 1477 1476 1475 1475 1473 1472 1470 1469 1467 1466 1464 1461 1459 1457 1455 1453 1452 1450 1448 1446 1443 1440
1477 1477 1478 1478 1478 1479 1479 1479 1479 1479 1478 1478 1478 1478 1478 1477 1477 1476 1475 1475 1473 1472 1471 1470 1468 1467 1466 1464 1462 1461 1459 1457 1456 1454 1451 1448 1447 1445 1444 1441 1440 1437 1434
1473 1473 1474 1474 1474 1475 1475 1475 1475 1475 1474 1474 1473 1473 1473 1473 1472 1471 1470 1469 1468 1467 1466 1464 1462 1461 1459 1457 1455 1453 1451 1450 1449 1447 1444 1442 1440 1439 1437 1435 1433 1430 1428
1469 1470 1470 1470 1470 1470 1470 1470 1470 1470 1470 1469 1469 1468 1468 1467 1467 1466 1465 1463 1462 1461 1459 1458 1456 1454 1453 1451 1449 1446 1444 1442 1441 1439 1437 1435 1433 1432 1431 1429 1426 1424 1420
1466 1466 1466 1466 1466 1466 1466 1466 1466 1466 1465 1465 1464 1464 1463 1462 1461 1460 1459 1457 1455 1454 1453 1452 1450 1448 1446 1444 1442 1440 1437 1434 1433 1430 1429 1427 1426 1424 1423 1422 1420 1418 1415
1462 1462 1462 1462 1462 1462 1462 1462 1462 1461 1461 1460 1459 1459 1458 1457 1456 1455 1453 1452 1450 1448 1446 1444 1443 1441 1439 1438 1436 1433 1430 1428 1425 1423 1420 1419 1417 1416 1415 1414 1413 1411 1409
1458 1458 1458 1458 1458 1458 1458 1458 1457 1456 1455 1455 1454 1453 1452 1451 1450 1448 1447 1446 1444 1442 1440 1438 1436 1434 1432 1430 1428 1426 1424 1421 1418 1415 1413 1411 1410 1409 1408 1406 1405 1404 1403
1453 1453 1453 1453 1453 1453 1453 1453 1452 1451 1451 1450 1448 1447 1446 1445 1444 1443 1441 1440 1438 1436 1434 1431 1429 1427 1425 1423 1421 1419 1417 1414 1411 1409 1406 1405 1404 1402 1401 1399 1398 1397 1396
1448 1448 1448 1448 1448 1448 1448 1448 1447 1446 1445 1444 1443 1442 1440 1439 1438 1436 1435 1433 1431 1429 1427 1425 1423 1420 1418 1416 1414 1412 1410 1408 1405 1402 1400 1398 1397 1396 1394 1393 1391 1390 1389
1443 1443 1443 1443 1443 1443 1443 1442 1442 1441 1441 1439 1438 1437 1435 1433 1432 1431 1429 1427 1425 1423 1420 1418 1416 1413 1411 1409 1407 1405 1403 1401 1398 1396 1394 1392 1391 1389 1388 1387 1386 1385 1383
1438 1438 1438 1438 1438 1438 1437 1437 1436 1436 1435 1434 1433 1431 1429 1428 1426 1424 1423 1421 1419 1417 1415 1412 1409 1407 1405 1402 1400 1398 1396 1394 1392 1390 1388 1387 1385 1384 1382 1382 1381 1380 1378
1433 1433 1433 1433 1433 1433 1432 1431 1430 1430 1430 1429 1427 1426 1424 1422 1420 1418 1416 1415 1413 1411 1408 1406 1404 1401 1399 1397 1395 1392 1390 1388 1387 1385 1383 1382 1380 1379 1377 1376 1375 1374 1373
1429 1429 1429 1428 1428 1428 1427 1426 1425 1424 1423 1422 1422 1420 1418 1416 1414 1412 1411 1408 1406 1404 1402 1400 1398 1396 1393 1391 1389 1387 1385 1383 1381 1379 1378 1376 1375 1374 1373 1372 1371 1370 1369
1424 1424 1424 1424 1423 1423 1422 1421 1420 1419 1418 1416 1415 1414 1412 1410 1408 1406 1404 1402 1400 1398 1396 1394 1392 1390 1388 1386 1384 1381 1379 1378 1376 1374 1373 1372 1370 1369 1368 1367 1366 1365 1364
1420 1420 1419 1419 1419 1418 1417 1416 1415 1414 1412 1410 1409 1407 1406 1403 1401 1400 1398 1397 1394 1392 1390 1388 1386 1384 1382 1380 1378 1376 1374 1372 1371 1369 1368 1367 1366 1365 1364 1363 1362 1361 1360
1415 1415 1415 1414 1414 1413 1412 1411 1410 1408 1407 1405 1403 1402 1400 1398 1395 1394 1392 1391 1389 1387 1384 1383 1381 1379 1377 1375 1373 1371 1369 1368 1366 1365 1364 1362 1361 1360 1359 1358 1357 1357 1356
1411 1410 1410 1409 1409 1408 1407 1406 1404 1403 1401 1399 1397 1396 1394 1392 1390 1388 1386 1385 1383 1381 1379 1377 1375 1373 1371 1370 1368 1366 1364 1363 1362 1360 1359 1358 1357 1356 1355 1354 1353 1352 1352
1406 1406 1405 1405 1404 1402 1401 1400 1399 1397 1395 1393 1392 1390 1388 1386 1384 1382 1380 1378 1376 1375 1373 1371 1369 1367 1366 1364 1363 1361 1360 1358 1357 1356 1355 1353 1352 1351 1351 1350 1349 1348 1348
1402 1401 1401 1400 1398 1397 1396 1394 1393 1391 1390 1388 1386 1384 1382 1380 1378 1376 1374 1372 1370 1368 1367 1365 1363 1362 1360 1359 1357 1356 1355 1353 1352 1351 1350 1349 1348 1347 1346 1346 1345 1344 1344
1398 1397 1396 1394 1393 1391 1390 1388 1387 1385 1384 1382 1380 1378 1376 1374 1372 1370 1368 1366 1364 1362 1361 1359 1358 1356 1355 1353 1352 1351 1350 1349 1348 1347 1346 1345 1344 1343 1342 1342 1341 1341 1340
1393 1392 1391 1389 1388 1386 1384 1383 1381 1379 1378 1376 1374 1372 1370 1368 1366 1364 1362 1360 1359 1357 1355 1354 1352 1351 1350 1348 1347 1346 1345 1344 1343 1342 1341 1340 1340 1339 1339 1338 1338 1337 1337